| time (UTC) | temp F | wind direction | speed knots | gust knots | rain 1hr in | rain 24hr in | rain mn in | humidity % | barometer mb |
| 20260904234504 | 86 | 313 | 0.0 | 0.0 | 0.00 | 0.13 | 0.01 | 69 | 1010.1 |
| 20260904233012 | 87 | 313 | 0.0 | 0.0 | 0.00 | 0.13 | 0.01 | 67 | 1010.0 |
| 20260904231515 | 88 | 313 | 0.0 | 0.0 | 0.00 | 0.13 | 0.01 | 66 | 1010.0 |
| 20260904230018 | 90 | 313 | 0.0 | 0.0 | 0.00 | 0.31 | 0.01 | 62 | 1009.8 |
| 20260904224516 | 91 | 311 | 0.0 | 0.0 | 0.00 | 0.31 | 0.01 | 59 | 1009.8 |
| 20260904223015 | 91 | 311 | 0.0 | 0.0 | 0.00 | 0.31 | 0.01 | 55 | 1009.8 |
| 20260904221518 | 92 | 155 | 0.0 | 0.0 | 0.00 | 0.31 | 0.01 | 56 | 1009.6 |
| 20260904220020 | 92 | 266 | 0.0 | 0.0 | 0.00 | 0.31 | 0.01 | 55 | 1009.7 |
| 20260904214525 | 92 | 223 | 0.0 | 0.0 | 0.00 | 0.31 | 0.01 | 57 | 1009.8 |
| 20260904213028 | 92 | 313 | 0.0 | 0.0 | 0.00 | 0.31 | 0.01 | 56 | 1009.9 |
| 20260904211512 | 92 | 305 | 0.0 | 0.0 | 0.00 | 0.31 | 0.01 | 57 | 1009.9 |
| 20260904210016 | 92 | 193 | 0.0 | 0.0 | 0.00 | 0.31 | 0.01 | 58 | 1010.0 |
| 20260904204516 | 92 | 287 | 0.0 | 0.9 | 0.00 | 0.31 | 0.01 | 57 | 1010.2 |
| 20260904203059 | 92 | 317 | 0.0 | 0.0 | 0.00 | 0.31 | 0.01 | 57 | 1010.3 |
| 20260904201557 | 92 | 340 | 0.0 | 0.0 | 0.00 | 0.31 | 0.01 | 57 | 1010.4 |
| 20260904200114 | 92 | 346 | 0.0 | 0.0 | 0.00 | 0.31 | 0.01 | 58 | 1010.6 |
| 20260904194504 | 92 | 209 | 0.0 | 1.7 | 0.00 | 0.31 | 0.01 | 57 | 1010.8 |
| 20260904193004 | 92 | 234 | 0.0 | 0.0 | 0.00 | 0.31 | 0.01 | 59 | 1011.2 |
| 20260904191503 | 92 | 38 | 0.0 | 0.0 | 0.00 | 0.31 | 0.01 | 61 | 1011.4 |
| 20260904190004 | 92 | 216 | 0.0 | 0.0 | 0.00 | 0.31 | 0.01 | 59 | 1011.8 |
| 20260904184506 | 92 | 355 | 0.0 | 0.0 | 0.00 | 0.31 | 0.01 | 60 | 1012.0 |
| 20260904183008 | 92 | 355 | 0.0 | 1.7 | 0.00 | 0.31 | 0.01 | 64 | 1012.2 |
| 20260904181510 | 91 | 158 | 0.0 | 3.5 | 0.00 | 0.31 | 0.01 | 64 | 1012.4 |
| 20260904180013 | 90 | 324 | 0.0 | 0.0 | 0.00 | 0.31 | 0.01 | 67 | 1012.6 |
| 20260904174515 | 91 | 188 | 0.0 | 0.0 | 0.00 | 0.31 | 0.01 | 66 | 1012.6 |
| 20260904173014 | 90 | 191 | 0.0 | 0.0 | 0.00 | 0.31 | 0.01 | 66 | 1012.8 |
| 20260904171511 | 90 | 155 | 0.0 | 0.0 | 0.00 | 0.31 | 0.01 | 69 | 1013.0 |
| 20260904170012 | 89 | 15 | 0.0 | 0.0 | 0.00 | 0.31 | 0.01 | 69 | 1013.2 |
| 20260904164512 | 89 | 15 | 0.0 | 0.0 | 0.00 | 0.31 | 0.01 | 72 | 1013.4 |
| 20260904163019 | 89 | 5 | 0.0 | 0.0 | 0.00 | 0.31 | 0.01 | 69 | 1013.5 |
| 20260904161519 | 88 | 51 | 0.0 | 0.0 | 0.00 | 0.31 | 0.01 | 72 | 1013.6 |
| 20260904160021 | 86 | 355 | 0.0 | 0.0 | 0.00 | 0.31 | 0.01 | 75 | 1013.7 |
| 20260904154521 | 85 | 360 | 0.0 | 0.0 | 0.00 | 0.31 | 0.01 | 79 | 1013.8 |
| 20260904153021 | 84 | 360 | 0.0 | 0.0 | 0.00 | 0.31 | 0.01 | 79 | 1013.8 |
| 20260904151521 | 83 | 360 | 0.0 | 0.0 | 0.00 | 0.31 | 0.01 | 81 | 1013.9 |
| 20260904150021 | 80 | 360 | 0.0 | 0.0 | 0.00 | 0.31 | 0.01 | 89 | 1014.0 |
| 20260904144521 | 80 | 360 | 0.0 | 0.0 | 0.00 | 0.31 | 0.01 | 91 | 1013.8 |
| 20260904143033 | 79 | 360 | 0.0 | 0.0 | 0.00 | 0.31 | 0.01 | 91 | 1013.8 |
| 20260904141529 | 78 | 360 | 0.0 | 0.0 | 0.00 | 0.31 | 0.01 | 91 | 1013.7 |
| 20260904140029 | 78 | 360 | 0.0 | 0.0 | 0.00 | 0.31 | 0.01 | 96 | 1013.5 |
| 20260904134537 | 77 | 360 | 0.0 | 0.0 | 0.00 | 0.31 | 0.01 | 98 | 1013.5 |
| 20260904133035 | 76 | 360 | 0.0 | 0.0 | 0.00 | 0.31 | 0.01 | 99 | 1013.5 |
| 20260904131533 | 76 | 360 | 0.0 | 0.0 | 0.00 | 0.31 | 0.01 | 99 | 1013.6 |
| 20260904130038 | 75 | 360 | 0.0 | 0.0 | 0.00 | 0.31 | 0.01 | 99 | 1013.5 |
| 20260904124543 | 74 | 360 | 0.0 | 0.0 | 0.01 | 0.31 | 0.01 | 99 | 1013.5 |
| 20260904123031 | 73 | 360 | 0.0 | 0.0 | 0.01 | 0.31 | 0.01 | 99 | 1013.3 |
| 20260904121513 | 72 | 360 | 0.0 | 0.0 | 0.01 | 0.31 | 0.01 | 99 | 1013.4 |
| 20260904120013 | 72 | 360 | 0.0 | 0.0 | 0.01 | 0.31 | 0.01 | 99 | 1013.2 |
| 20260904114515 | 72 | 360 | 0.0 | 0.0 | 0.00 | 0.30 | 0.00 | 99 | 1013.2 |
| 20260904113015 | 72 | 360 | 0.0 | 0.0 | 0.00 | 0.30 | 0.00 | 99 | 1013.1 |
| 20260904111516 | 72 | 360 | 0.0 | 0.0 | 0.00 | 0.30 | 0.00 | 98 | 1012.9 |
| 20260904110019 | 72 | 360 | 0.0 | 0.0 | 0.00 | 0.30 | 0.00 | 98 | 1012.7 |
| 20260904104525 | 72 | 360 | 0.0 | 0.0 | 0.00 | 0.30 | 0.00 | 98 | 1012.7 |
| 20260904103024 | 72 | 360 | 0.0 | 0.0 | 0.00 | 0.30 | 0.00 | 98 | 1012.8 |
| 20260904101528 | 72 | 360 | 0.0 | 0.0 | 0.00 | 0.30 | 0.00 | 99 | 1012.5 |
| 20260904100029 | 72 | 360 | 0.0 | 0.0 | 0.00 | 0.30 | 0.00 | 98 | 1012.4 |
| 20260904094542 | 73 | 360 | 0.0 | 0.0 | 0.00 | 0.30 | 0.00 | 98 | 1012.4 |
| 20260904093034 | 73 | 360 | 0.0 | 0.0 | 0.00 | 0.30 | 0.00 | 98 | 1012.3 |
| 20260904091518 | 73 | 360 | 0.0 | 0.0 | 0.00 | 0.30 | 0.00 | 98 | 1012.3 |
| 20260904090037 | 73 | 360 | 0.0 | 0.0 | 0.00 | 0.30 | 0.00 | 98 | 1012.2 |
| 20260904084521 | 73 | 360 | 0.0 | 0.0 | 0.00 | 0.30 | 0.00 | 98 | 1012.1 |
| 20260904083100 | 73 | 360 | 0.0 | 0.0 | 0.00 | 0.30 | 0.00 | 98 | 1012.2 |
| 20260904081513 | 73 | 360 | 0.0 | 0.0 | 0.00 | 0.30 | 0.00 | 99 | 1012.2 |
| 20260904080014 | 73 | 360 | 0.0 | 0.0 | 0.00 | 0.30 | 0.00 | 98 | 1012.0 |
| 20260904074519 | 73 | 360 | 0.0 | 0.0 | 0.00 | 0.30 | 0.00 | 98 | 1012.0 |
| 20260904073017 | 73 | 360 | 0.0 | 0.0 | 0.00 | 0.30 | 0.00 | 98 | 1012.0 |
| 20260904071518 | 73 | 360 | 0.0 | 0.0 | 0.00 | 0.30 | 0.00 | 98 | 1012.0 |
| 20260904070026 | 74 | 360 | 0.0 | 0.0 | 0.00 | 0.30 | 0.00 | 98 | 1012.0 |
| 20260904064525 | 74 | 360 | 0.0 | 0.0 | 0.00 | 0.30 | 0.00 | 98 | 1012.0 |
| 20260904063032 | 74 | 360 | 0.0 | 0.0 | 0.00 | 0.30 | 0.00 | 98 | 1012.1 |
| 20260904061530 | 74 | 360 | 0.0 | 0.0 | 0.00 | 0.30 | 0.00 | 98 | 1012.3 |
| 20260904060033 | 74 | 360 | 0.0 | 0.0 | 0.00 | 0.30 | 0.00 | 98 | 1012.3 |
| 20260904054535 | 74 | 360 | 0.0 | 0.0 | 0.00 | 0.30 | 0.00 | 98 | 1012.3 |
| 20260904053043 | 74 | 360 | 0.0 | 0.0 | 0.00 | 0.30 | 0.00 | 98 | 1012.3 |
| 20260904051524 | 74 | 360 | 0.0 | 0.0 | 0.00 | 0.30 | 0.00 | 98 | 1012.4 |
| 20260904050016 | 74 | 360 | 0.0 | 0.0 | 0.00 | 0.30 | 0.00 | 98 | 1012.6 |
| 20260904044522 | 75 | 360 | 0.0 | 0.0 | 0.00 | 0.30 | 0.00 | 98 | 1012.6 |
| 20260904043032 | 75 | 360 | 0.0 | 0.0 | 0.00 | 0.30 | 0.00 | 98 | 1012.6 |
| 20260904041521 | 75 | 360 | 0.0 | 0.0 | 0.00 | 0.30 | 0.00 | 98 | 1012.6 |
| 20260904040029 | 75 | 360 | 0.0 | 0.0 | 0.00 | 0.30 | 0.30 | 97 | 1012.6 |
| 20260904034522 | 75 | 360 | 0.0 | 0.0 | 0.00 | 0.30 | 0.30 | 97 | 1012.5 |
| 20260904033024 | 75 | 360 | 0.0 | 0.0 | 0.00 | 0.30 | 0.30 | 97 | 1012.6 |
| 20260904031531 | 75 | 360 | 0.0 | 0.0 | 0.00 | 0.30 | 0.30 | 97 | 1012.7 |
| 20260904030027 | 75 | 360 | 0.0 | 0.0 | 0.00 | 0.30 | 0.30 | 97 | 1012.5 |
| 20260904024527 | 75 | 360 | 0.0 | 0.0 | 0.00 | 0.30 | 0.30 | 97 | 1012.6 |
| 20260904023032 | 75 | 360 | 0.0 | 0.0 | 0.00 | 0.30 | 0.30 | 97 | 1012.6 |
| 20260904021533 | 75 | 360 | 0.0 | 0.0 | 0.00 | 0.30 | 0.30 | 97 | 1012.4 |
| 20260904020033 | 75 | 360 | 0.0 | 0.0 | 0.00 | 0.30 | 0.30 | 97 | 1012.2 |
| 20260904014535 | 75 | 360 | 0.0 | 0.0 | 0.00 | 0.30 | 0.30 | 96 | 1012.2 |
| 20260904013046 | 75 | 360 | 0.0 | 0.0 | 0.00 | 0.30 | 0.30 | 96 | 1012.1 |
| 20260904011547 | 75 | 360 | 0.0 | 0.0 | 0.00 | 0.30 | 0.30 | 96 | 1012.0 |
| 20260904010046 | 75 | 360 | 0.0 | 0.0 | 0.00 | 0.30 | 0.30 | 96 | 1012.0 |
| 20260904004508 | 75 | 360 | 0.0 | 0.0 | 0.00 | 0.30 | 0.30 | 96 | 1011.8 |
| 20260904003010 | 75 | 360 | 0.0 | 0.0 | 0.00 | 0.30 | 0.30 | 95 | 1011.6 |
| 20260904001514 | 75 | 360 | 0.0 | 0.0 | 0.01 | 0.30 | 0.30 | 95 | 1011.3 |
| 20260904000016 | 75 | 360 | 0.0 | 0.0 | 0.28 | 0.30 | 0.30 | 94 | 1010.9 |